Overview Statistics Trail Chart Weather Telemetry Raw packets
 

This is the latest recevied weather packets stored in our database for station/object KD4EED. If no packets are shown the sender has not sent any weather packets the latest 10 day(s).

<< 89 90 91 92 93 94 95 >>
Time Temp. Humidity Pressure Rain* Wind** Luminosity Snow
1788019339 25° C 81% 1009.9 hPa - - 51 W/m² -
1788019037 25° C 82% 1010 hPa - - 50 W/m² -
1788018733 24.44° C 83% 1009.9 hPa - - 45 W/m² -
1788018433 24.44° C 84% 1010 hPa - - 41 W/m² -
1788018132 23.89° C 85% 1010 hPa - - 39 W/m² -
1788017829 23.89° C 85% 1009.8 hPa - - 37 W/m² -
1788017525 23.89° C 88% 1010 hPa - - 35 W/m² -
1788017221 23.33° C 88% 1009.7 hPa - - 34 W/m² -
1788016916 23.33° C 89% 1009.9 hPa - - 33 W/m² -
1788016615 23.33° C 89% 1009.9 hPa - - 31 W/m² -
1788016315 22.78° C 90% 1009.8 hPa - - 29 W/m² -
1788016014 22.78° C 91% 1009.8 hPa - - 27 W/m² -
1788015714 22.78° C 91% 1009.7 hPa - - 27 W/m² -
1788015414 22.22° C 91% 1009.7 hPa - - 26 W/m² -
1788015109 22.22° C 91% 1010 hPa - - 23 W/m² -
1788014808 21.67° C 91% 1009.8 hPa - - 22 W/m² -
1788014508 21.67° C 91% 1009.9 hPa - - 22 W/m² -
1788014204 21.67° C 91% 1010 hPa - - 21 W/m² -
1788013903 21.11° C 90% 1009.8 hPa - - 20 W/m² -
1788013603 21.11° C 90% 1009.7 hPa - - 17 W/m² -
1788013298 21.11° C 90% 1009.6 hPa - - 15 W/m² -
1788012997 21.11° C 90% 1009.6 hPa - - 13 W/m² -
1788012691 21.11° C 90% 1009.6 hPa - - 11 W/m² -
1788012388 21.11° C 90% 1009.4 hPa - - 10 W/m² -
1788012081 20.56° C 90% 1009.4 hPa - - 8 W/m² -

* Rain since midnight (hover to see other rain measurements)
** Current wind speed in m/s (hover to see current wind gust speed)